小惑星A/2020 H9

A/2020 H9

English version
Home page
Updated on August 15, 2020

---------------------------------------------------------------------

・ プロフィール

発見日 2020年4月28日
発見光度 21.85等
発見者 Pan-STARRS 1 telescope (Haleakala)

・ 軌道要素

Epoch 2019 Dec. 23.0 TT = JDT 2458840.5
T 2019 Dec. 21.11343 TT                                 Rudenko
q   2.5778292            (2000.0)            P               Q
z  +0.0028070      Peri.  312.81521     -0.27204990     -0.88970921
 +/-0.0000337      Node   213.11868     -0.56285283     -0.16188981
e   0.9927641      Incl.  137.85611     -0.78050339     +0.42685970
H   18.0
From 48 observations 2020 Apr. 22-July 22, mean residual 0".2.

・ 光度変化

        H = 17.5  G = 0.15

---------------------------------------------------------------------

軌道要素はM.P.E.C. 2020-P19に掲載されたものです。
光度グラフはComet for Windowsで作成したものです。

---------------------------------------------------------------------

Copyright(C) Seiichi Yoshida (comet@aerith.net). All rights reserved.